Location: Guayaquil
(2.1667°S, 79.9000°W)
Time: 10:10:10
(UTC-05:00)

Envisat - Pass Details

Date: 11 August 2020
Orbit: 764 x 766 km, 98.1° (Epoch: 23 September)

Event Time Altitude Azimuth Distance (km) Brightness Sun altitude
Rises 04:55:58 0° 51° (NE) 3,216 7.4 -22.0°
Reaches altitude 10° 04:59:52 10° 82° (E) 2,295 6.6 -21.1°
Maximum altitude 05:01:41 12° 103° (ESE) 2,166 6.2 -20.6°
Drops below altitude 10° 05:03:30 10° 125° (SE) 2,299 6.0 -20.2°
Sets 05:07:24 0° 155° (SSE) 3,228 6.4 -19.2°
